Spring Lake, NC

11:29 AM EST on February 09, 2016 (GMT -0500)
Pope Field Airport

Weather History for KPOB - November, 2012

Change the Weather History Date:

Wednesday, November 28, 2012

  Actual Average Record
Temperature  
Mean Temperature 42 °F -  
Max Temperature 53 °F 65 °F - (-1)
Min Temperature 30 °F 44 °F - (-1)
Degree Days  
Heating Degree Days 24    
Moisture  
Dew Point 34 °F    
Average Humidity 76    
Maximum Humidity 93    
Minimum Humidity 42    
Precipitation  
Precipitation 0.00 in - - ()
Sea Level Pressure  
Sea Level Pressure 30.32 in    
Wind  
Wind Speed 6 mph (NNE)    
Max Wind Speed 10 mph    
Max Gust Speed -    
Visibility 10 miles    
Events      
Averages and records for this station are not official NWS values.
T = Trace of Precipitation, MM = Missing Value Source: NWS Daily Summary

Daily Weather History Graph

Daily Weather History Graph

Search for Another Location

Airport or City:

Trip Planner

Search our weather history database for the weather conditions in past years. The results will help you decide how hot, cold, wet, or windy it might be!

Date:

Astronomy

Nov. 28, 2012 Rise Set
Actual Time 7:03 AM EST 5:04 PM EST
Civil Twilight 6:36 AM EST 5:32 PM EST
Nautical Twilight 6:04 AM EST 6:03 PM EST
Astronomical Twilight 5:34 AM EST 6:33 PM EST
Moon 5:18 PM EST (11/28) 6:59 AM EST (11/28)
Length of Visible Light 10h 55m
Length of Day
10h 00m
Full, 100% of the Moon is Illuminated
Nov 28
Full
Dec 6
Last Quarter
Dec 13
New
Dec 20
First Quarter
Dec 28
Full

Hourly Weather History & Observations

Time (EST) Temp. Windchill Dew Point Humidity Pressure Visibility Wind Dir Wind Speed Gust Speed Precip Events Conditions
12:30 AM 44.6 °F 39.7 °F 42.8 °F 93% 30.23 in 10.0 mi NE 9.2 mph - N/A   Overcast
12:54 AM 44.6 °F 39.2 °F 41.0 °F 87% 30.24 in 10.0 mi NNE 10.4 mph - N/A   Overcast
12:55 AM 44.6 °F 39.2 °F 41.0 °F 87% 30.24 in 10.0 mi NE 10.4 mph - N/A   Overcast
1:45 AM 44.6 °F 39.7 °F 39.2 °F 81% 30.25 in 10.0 mi NE 9.2 mph - N/A   Overcast
1:55 AM 43.7 °F 39.7 °F 39.9 °F 87% 30.24 in 10.0 mi NE 6.9 mph - N/A   Overcast
2:55 AM 43.0 °F 37.2 °F 37.2 °F 80% 30.26 in 10.0 mi NE 10.4 mph - N/A   Overcast
3:55 AM 38.8 °F 35.4 °F 35.4 °F 88% 30.25 in 10.0 mi NE 4.6 mph - N/A   Partly Cloudy
4:55 AM 36.0 °F 32.1 °F 33.6 °F 91% 30.26 in 10.0 mi NE 4.6 mph - N/A   Clear
5:55 AM 37.0 °F 33.3 °F 33.4 °F 87% 30.29 in 10.0 mi NNE 4.6 mph - N/A   Clear
6:55 AM 34.7 °F - 32.5 °F 92% 30.30 in 10.0 mi Calm Calm - N/A   Clear
7:55 AM 35.8 °F - 33.1 °F 90% 30.34 in 10.0 mi Calm Calm - N/A   Clear
8:55 AM 40.8 °F 36.2 °F 35.1 °F 80% 30.35 in 10.0 mi NE 6.9 mph - N/A   Clear
9:55 AM 44.1 °F 39.5 °F 34.0 °F 68% 30.37 in 10.0 mi ENE 8.1 mph - N/A   Clear
10:55 AM 46.4 °F 43.5 °F 33.3 °F 60% 30.37 in 10.0 mi North 5.8 mph - N/A   Clear
11:55 AM 49.6 °F - 33.8 °F 54% 30.35 in 10.0 mi NNW 6.9 mph - N/A   Clear
12:55 PM 51.1 °F - 32.2 °F 48% 30.34 in 10.0 mi North 8.1 mph - N/A   Clear
1:55 PM 52.5 °F - 32.4 °F 46% 30.32 in 10.0 mi North 6.9 mph - N/A   Clear
2:55 PM 53.8 °F - 31.1 °F 42% 30.30 in 10.0 mi North 6.9 mph - N/A   Clear
3:55 PM 53.4 °F - 30.6 °F 42% 30.31 in 10.0 mi NNW 3.5 mph - N/A   Clear
4:55 PM 50.9 °F - 31.8 °F 48% 30.32 in 10.0 mi NNW 3.5 mph - N/A   Clear
5:55 PM 43.2 °F - 33.6 °F 69% 30.33 in 10.0 mi Calm Calm - N/A   Clear
6:55 PM 37.9 °F - 33.1 °F 83% 30.35 in 10.0 mi Calm Calm - N/A   Clear
7:55 PM 36.1 °F - 32.9 °F 88% 30.36 in 10.0 mi Calm Calm - N/A   Clear
8:55 PM 34.3 °F 31.4 °F 31.1 °F 88% 30.37 in 10.0 mi West 3.5 mph - N/A   Clear
9:55 PM 32.9 °F - 30.0 °F 89% 30.39 in 10.0 mi Calm Calm - N/A   Clear
10:55 PM 30.4 °F - 28.4 °F 92% 30.40 in 10.0 mi Calm Calm - N/A   Clear
11:55 PM 30.9 °F - 28.2 °F 90% 30.41 in 10.0 mi Calm Calm - N/A   Clear